Location: Mentone
(34.5413°N, 85.5351°W)
Time: 11:31:28
(UTC-05:00)

Vanguard 1 - Visible Passes

Search period start: 04 September 2015 00:00
Search period end: 14 September 2015 00:00
Orbit: 649 x 3835 km, 34.2° (Epoch: 02 September)

Date Brightness Start Highest point End Pass type
(mag) Time Alt. Az. Time Alt. Az. Time Alt. Az.
04 Sep 13.2 03:12:30 21° S 03:12:30 21° S 03:18:56 10° SSE visible
04 Sep 9.4 20:17:17 10° WSW 20:21:41 71° SSE 20:24:59 24° E visible
04 Sep 12.0 22:36:38 10° W 22:37:42 18° W 22:37:42 18° W visible
05 Sep 13.4 03:33:21 17° S 03:33:21 17° S 03:38:22 10° SSE visible
05 Sep 9.3 20:38:20 10° W 20:42:49 83° S 20:44:50 39° E visible
06 Sep 13.5 03:54:05 12° S 03:54:05 12° S 03:56:35 10° S visible
06 Sep 9.4 20:59:26 10° W 21:03:58 88° S 21:04:42 67° E visible
07 Sep 9.7 21:20:32 10° W 21:24:33 71° W 21:24:33 71° W visible
08 Sep 9.2 19:21:49 10° WSW 19:26:16 72° SSE 19:31:07 10° E visible
08 Sep 10.6 21:41:36 10° W 21:44:24 39° W 21:44:24 39° W visible
09 Sep 9.2 19:42:57 10° W 19:47:23 84° S 19:51:32 15° E visible
09 Sep 11.5 22:02:41 10° W 22:04:15 22° W 22:04:15 22° W visible
10 Sep 9.2 20:04:07 10° W 20:08:32 88° S 20:11:23 25° E visible
10 Sep 12.2 22:23:48 10° W 22:24:07 12° W 22:24:07 12° W visible
11 Sep 9.2 20:25:16 10° W 20:29:39 85° S 20:31:15 43° E visible
12 Sep 9.2 20:46:24 10° W 20:50:48 75° S 20:51:07 71° SSE visible
13 Sep 9.9 21:07:32 10° W 21:11:00 50° WSW 21:11:00 50° WSW visible
